Notices

What's New in latest Release from April 7th, 2021:

- Updated Glossary, including Speed of Maximum Gust, and Total Hourly Precipitation

- Updated national and regional climate services offices contacts and prices information

- Addition of station inventory lists for 1981-2010, 1971-2000, and 1961-1990 Normals.

If you haven't already, please take our survey and provide feedback about our website: https://eccc.sondage-survey.ca/f/LanguageSelection.aspx?s=442ca660-fcf1-47c0-95a9-59707d6fd709

Hourly Data Report for March 24, 2003

TORONTO CITY
ONTARIO

43°40'00.000" N
79°24'00.000" W
112.50 m
6158355
71508
XTO

Download Data

Hourly Data (March 2003)
Hourly Data Report for March 24, 2003
TIME
LST
Temp Definition
°C
Dew Point Definition
°C
Rel Hum Definition
%
Precip. Amount Definition
mm

Wind Dir Definition
10's deg

Wind Spd Definition
km/h
Visibility Definition
km
Stn Press Definition
kPa
Hmdx Definition


Wind Chill Definition


Weather Definition


00:00 4.9 1.9 81   LegendMM LegendMM LegendMM 100.18     LegendNANA
01:00 4.4 1.4 81   LegendMM LegendMM LegendMM 100.15     LegendNANA
02:00 3.6 1.0 83   LegendMM LegendMM LegendMM 100.17     LegendNANA
03:00 3.4 0.8 83   LegendMM LegendMM LegendMM 100.14     LegendNANA
04:00 3.5 1.1 84   LegendMM LegendMM LegendMM 100.20     LegendNANA
05:00 2.3 0.7 89   LegendMM LegendMM LegendMM 100.25     LegendNANA
06:00 3.2 1.4 88   LegendMM LegendMM LegendMM 100.25     LegendNANA
07:00 3.2 1.1 86   LegendMM LegendMM LegendMM 100.32     LegendNANA
08:00 4.6 0.9 77   LegendMM LegendMM LegendMM 100.30     LegendNANA
09:00 6.0 1.5 73   LegendMM LegendMM LegendMM 100.31     LegendNANA
10:00 6.6 1.1 68   LegendMM LegendMM LegendMM 100.32     LegendNANA
11:00 8.6 1.1 59   LegendMM LegendMM LegendMM 100.30     LegendNANA
12:00 9.9 1.8 57   LegendMM LegendMM LegendMM 100.27     LegendNANA
13:00 10.9 3.7 61   LegendMM LegendMM LegendMM 100.18     LegendNANA
14:00 10.2 3.0 61   LegendMM LegendMM LegendMM 100.10     LegendNANA
15:00 10.6 3.2 60   LegendMM LegendMM LegendMM 100.03     LegendNANA
16:00 9.2 2.3 62   LegendMM LegendMM LegendMM 99.95     LegendNANA
17:00 7.0 1.5 68   LegendMM LegendMM LegendMM 99.96     LegendNANA
18:00 6.1 1.3 71   LegendMM LegendMM LegendMM 99.91     LegendNANA
19:00 6.1 1.4 72   LegendMM LegendMM LegendMM 99.87     LegendNANA
20:00 6.4 2.1 74   LegendMM LegendMM LegendMM 99.82     LegendNANA
21:00 6.8 2.7 75   LegendMM LegendMM LegendMM 99.79     LegendNANA
22:00 6.5 2.8 77   LegendMM LegendMM LegendMM 99.71     LegendNANA
23:00 6.9 3.3 78   LegendMM LegendMM LegendMM 99.67     LegendNANA

Notes on Data Quality.

Legend

  • E = Estimated
  • M = Missing
  • NA = Not Available*
  • [empty] = Indicates an unobserved value
Date modified: